This is the latest recevied weather packets stored in our database for station/object N3WXO-1. If no packets are shown the sender has not sent any weather packets the latest 10 day(s).
| Time | Temp. | Humidity | Pressure | Rain* | Wind** | Luminosity | Snow |
|---|---|---|---|---|---|---|---|
| 1777307420 | 21.67° C | 39% | 1024.1 hPa | 0 mm | - | 867 W/m² | - |
| 1777307137 | 21.11° C | 38% | 1024.2 hPa | 0 mm | - | 867 W/m² | - |
| 1777306832 | 21.11° C | 38% | 1024.1 hPa | 0 mm | - | 863 W/m² | - |
| 1777306528 | 21.11° C | 41% | 1024.1 hPa | 0 mm | - | 856 W/m² | - |
| 1777306224 | 21.11° C | 39% | 1024.2 hPa | 0 mm | - | 856 W/m² | - |
| 1777305918 | 21.11° C | 40% | 1024.3 hPa | 0 mm | - | 849 W/m² | - |
| 1777305635 | 21.11° C | 40% | 1024.3 hPa | 0 mm | - | 846 W/m² | - |
| 1777305335 | 20.56° C | 40% | 1024.3 hPa | 0 mm | - | 842 W/m² | - |
| 1777305032 | 20.56° C | 40% | 1024.3 hPa | 0 mm | - | 838 W/m² | - |
| 1777304727 | 20.56° C | 42% | 1024.4 hPa | 0 mm | - | 826 W/m² | - |
| 1777304423 | 20° C | 43% | 1024.5 hPa | 0 mm | - | 823 W/m² | - |
| 1777304121 | 20° C | 42% | 1024.5 hPa | 0 mm | - | 812 W/m² | - |
| 1777303837 | 19.44° C | 42% | 1024.4 hPa | 0 mm | - | 809 W/m² | - |
| 1777303534 | 19.44° C | 42% | 1024.4 hPa | 0 mm | - | 803 W/m² | - |
| 1777303233 | 19.44° C | 45% | 1024.4 hPa | 0 mm | - | 791 W/m² | - |
| 1777302929 | 18.89° C | 48% | 1024.4 hPa | 0 mm | - | 786 W/m² | - |
| 1777302625 | 18.33° C | 52% | 1024.5 hPa | 0 mm | - | 784 W/m² | - |
| 1777302320 | 17.78° C | 57% | 1024.4 hPa | 0 mm | - | 773 W/m² | - |
| 1777302034 | 17.22° C | 61% | 1024.5 hPa | 0 mm | - | 761 W/m² | - |
| 1777301730 | 16.67° C | 60% | 1024.6 hPa | 0 mm | - | 752 W/m² | - |
| 1777301428 | 16.67° C | 68% | 1024.7 hPa | 0 mm | - | 742 W/m² | - |
| 1777301127 | 16.67° C | 67% | 1024.8 hPa | 0 mm | - | 733 W/m² | - |
| 1777300824 | 16.11° C | 66% | 1024.8 hPa | 0 mm | - | 721 W/m² | - |
| 1777300522 | 16.11° C | 66% | 1024.9 hPa | 0 mm | - | 710 W/m² | - |
| 1777300236 | 16.11° C | 67% | 1024.8 hPa | 0 mm | - | 703 W/m² | - |
* Rain latest hour (hover to see other rain measurements)
** Current wind speed in m/s (hover to see current wind gust speed)